Location: Harmony
(28.2000°N, 81.1500°W)
Time: 09:34:36
(UTC-04:00)

Cosmos 1048 Rocket - Pass Details

Date: 18 December 2017
Orbit: 744 x 791 km, 74.0° (Epoch: 25 April)

Event Time Altitude Azimuth Distance (km) Brightness Sun altitude
Rises 18:12:17 0° 345° (NNW) 3,289 7.2 -8.9°
Reaches altitude 10° 18:14:42 10° 346° (NNW) 2,356 6.5 -9.4°
Maximum altitude 18:20:04 84° 74° (ENE) 795 4.0 -10.5°
Drops below altitude 10° 18:25:23 10° 163° (SSE) 2,326 6.6 -11.6°
Sets 18:27:44 0° 164° (SSE) 3,244 7.3 -12.1°
